SCP
-0 -0 -0 -0 -0 -0 -0 -0 0 -0 -0 -0 -0 0 0 0 0 -0 -0 0 0 0 0 0 0 0 0 0 0 0 0 0 0 -0 -0 -0 -0 -0 -0 0 0 0 0
-0 -0 -0 -0 -0 -0 -0 -0 -0 -0 -0 0 -0 -0 -0 0 -0 -0 -0 -0 -0 0 0 0 0 0 0 0 0 0 0 0 0 0 -0 0 -0 -0 -0 0 0 0 0
0 -0 -0 -0 -0 -0 -0 -0 -0 -0 -0 -0 -0 -0 -0 -0 -0 0 0 0 0 0 -0 0 0 0 0 0 0 0 0 0 0 0 0 0 0 -0 -0 -0 0 0 0
0 0 -0 -0 -0 -0 -0 -0 -0 -0 -0 -0 -0 -0 -0 -0 -0 -0 -0 0 0 0 0 0 0 0 0 0 0 0 0 0 0 0 0 0 0 0 -0 0 0 0 0
0 0 0 -0 -0 -0 -0 -0 -0 -0 -0 -0 -0 -0 -0 -0 -0 -0 -0 -0 0 0 0 0 0 0 0 0 0 0 0 0 0 0 0 0 0 0 0 0 0 0 0
0 0 0 0 -0 -0 -0 -0 -0 -0 -0 -0 -0 -0 -0 -0 -0 -0 -0 -0 -0 0 0 0 0 0 0 0 0 0 0 0 0 0 0 0 0 0 0 0 0 0 0
0 0 0 0 0 0 0 0 0 0 0 0 0 0 0 0 0 0 0 0 0 0 0 0 0 0 0 0 0 0 0 0 0 0 0 0 0 0 0 0 0 0 0
0 0 0 0 0 0 0 0 0 0 0 0 0 0 0 0 0 0 0 0 0 0 0 0 0 0 0 0 0 0 0 0 0 0 0 0 0 0 0 0 0 0 0
0 0 0 0 0 0 0 0 0 0 0 0 0 0 0 0 0 0 0 0 0 0 0 0 0 0 0 0 0 0 0 0 0 0 0 0 0 0 0 0 0 0 0
0 0 0 0 0 0 0 0 0 0 0 0 0 0 0 0 0 0 0 0 0 0 0 0 0 0 0 0 0 0 0 0 0 0 0 0 0 0 0 1 0 0 0
0 0 0 0 0 0 0 0 0 0 0 0 0 0 0 0 0 0 0 0 0 0 0 0 0 0 0 0 0 0 0 0 0 0 0 0 0 0 0 1 1 0 0
0 0 0 0 0 0 0 0 0 0 0 0 0 0 0 0 0 0 0 0 0 0 0 0 0 0 0 0 0 0 0 0 0 0 0 0 0 0 0 1 1 1 1
0 0 0 0 0 0 0 0 0 0 0 0 0 0 0 0 0 0 0 0 0 0 0 0 0 0 0 0 0 0 0 0 0 0 0 0 0 0 0 1 1 1 1
0 0 0 0 0 0 0 0 0 0 0 0 0 0 0 0 0 0 0 0 0 0 0 0 0 0 0 0 0 0 0 0 0 0 0 0 0 0 0 0 1 1 1
0 0 0 0 0 0 0 0 0 0 0 0 0 0 0 0 0 0 0 0 0 0 0 0 0 0 0 0 0 0 0 0 0 0 0 0 0 0 0 0 1 1 1
0 0 0 0 0 0 0 0 0 0 0 0 0 0 0 0 0 0 0 0 0 0 0 0 0 0 0 0 0 0 0 0 0 0 0 0 0 0 0 0 0 1 1
0 0 0 0 0 0 0 0 0 0 0 0 0 0 0 0 0 0 0 0 -0 -0 -0 0 0 0 0 0 0 0 0 0 0 0 0 0 0 0 0 0 0 1 1
0 0 0 0 0 0 0 0 0 0 0 0 0 0 0 0 0 0 0 0 -0 -0 -0 -0 -0 -0 -0 -0 -0 0 0 0 0 0 0 0 0 0 0 0 0 0 1
0 0 0 0 0 0 0 0 0 0 0 0 0 0 0 0 0 0 0 0 0 -0 -0 -0 -0 -0 -0 -0 -0 -0 -0 0 0 0 0 0 0 0 0 0 0 0 0
0 0 0 0 0 0 0 0 0 0 0 0 0 0 0 0 0 0 0 0 0 -0 -0 -0 -0 -0 -0 -0 -0 -0 -0 -0 -0 0 0 0 0 0 0 0 0 0 0
0 0 0 0 0 0 0 0 0 0 0 0 0 0 0 0 -0 0 0 0 0 0 0 -0 -0 -0 -0 -0 -0 -0 -0 0 -0 -0 0 -0 0 0 0 0 0 0 0
0 0 0 0 0 0 0 0 0 0 0 0 0 0 0 -0 0 0 0 0 0 0 0 0 0 0 -0 -0 -0 -0 -0 -0 -0 -0 -0 -0 -0 0 0 0 0 0 0
0 0 0 0 0 0 0 0 0 0 0 0 0 0 0 0 0 0 0 0 0 0 0 0 0 0 0 0 0 0 0 0 -0 -0 -0 0 0 0 0 0 0 0 0
0 0 0 0 0 0 0 0 0 0 0 0 0 0 0 -0 0 0 0 0 0 0 0 0 0 0 0 0 0 0 0 0 0 -0 -0 0 -0 0 0 0 0 0 0
0 0 0 0 0 0 0 0 0 0 0 0 0 0 0 0 0 0 0 0 0 0 0 0 0 0 0 0 0 0 0 0 0 0 0 0 0 0 0 0 0 0 0
0 0 0 0 0 0 0 0 0 0 0 0 0 0 0 0 0 0 0 0 0 0 0 0 0 0 0 0 0 0 0 0 0 0 0 0 0 0 0 0 0 0 0
Wind_Speed_500mb
3 7 13 8 5 2 5 10 10 9 7 7 9 11 12 12 12 12 13 13 15 20 22 22 22 25 23 21 20 19 21 23 24 27 25 22 21 22 24 24 23 25 24
9 11 8 7 7 2 7 8 8 7 7 9 11 12 13 14 16 17 18 19 19 18 18 20 22 21 25 25 26 25 24 25 27 29 30 29 29 25 26 24 28 28 29
7 12 11 7 7 10 14 12 13 12 9 13 12 13 13 14 15 18 20 23 24 23 22 24 23 24 24 26 26 28 30 30 30 30 32 37 35 28 26 25 26 30 33
3 6 7 10 9 9 14 16 18 21 22 21 22 23 23 22 23 23 22 22 24 26 27 26 27 25 27 28 30 29 30 32 33 32 34 37 38 32 31 29 26 29 34
4 3 8 8 4 7 11 13 19 22 24 26 28 28 29 29 29 28 29 29 28 28 29 29 32 31 32 32 30 35 31 32 34 36 35 38 40 39 35 31 30 31 34
4 5 3 5 7 7 5 5 10 15 20 24 29 34 38 40 38 38 36 37 36 35 35 33 33 34 36 36 35 35 37 37 36 39 41 40 40 42 38 36 35 33 35
9 6 2 3 6 9 11 12 11 11 14 17 19 25 30 37 42 46 46 45 45 43 43 43 40 40 40 39 40 39 39 40 43 44 43 44 43 42 43 41 41 39 38
14 11 9 9 8 9 11 14 16 18 21 23 26 29 31 36 38 42 45 49 53 53 51 47 48 48 48 48 45 43 43 43 47 49 50 46 48 46 47 48 47 46 45
21 17 13 9 7 7 9 11 12 14 16 19 23 27 31 36 43 46 47 48 52 54 53 54 56 55 54 54 54 53 50 49 49 53 54 56 48 50 50 54 54 54 52
25 20 17 11 7 4 5 7 9 11 14 16 19 24 27 31 36 40 46 50 51 52 54 58 60 61 60 61 60 60 64 61 60 57 61 62 57 51 54 57 60 60 59
27 23 18 15 11 5 1 5 9 13 15 17 19 22 25 27 29 32 35 41 46 49 50 53 58 63 65 67 67 67 67 68 70 69 66 66 63 58 55 59 64 65 66
31 27 21 16 10 5 3 6 11 15 17 20 23 26 30 35 38 40 41 41 41 44 46 48 53 57 61 69 72 73 75 74 75 77 77 74 68 64 60 60 65 71 73
36 32 26 20 14 10 6 5 7 10 14 18 22 25 29 32 37 42 44 44 44 45 47 48 49 53 58 62 66 73 75 79 81 81 81 81 78 72 67 62 67 74 78
43 38 30 21 17 14 11 6 6 9 13 17 21 26 29 32 36 41 46 49 51 50 49 51 54 55 55 57 61 67 70 78 78 80 85 84 82 81 74 72 67 75 79
48 42 34 27 24 20 13 8 7 9 13 18 22 27 32 37 40 43 47 52 54 54 54 52 55 60 62 62 60 62 67 71 80 82 86 87 86 85 84 80 78 74 81
52 46 37 32 26 19 12 7 7 10 15 22 28 33 38 41 42 44 49 52 54 56 58 61 61 62 64 67 70 68 67 68 71 83 88 90 94 91 91 89 87 84 80
52 44 36 30 22 17 11 10 12 15 18 22 27 32 37 41 44 49 54 57 60 62 62 63 65 69 69 66 70 76 77 74 75 74 87 97 94 98 97 100 97 94 89
50 42 37 33 27 21 17 15 14 16 18 22 26 32 37 42 46 49 54 60 62 65 68 70 72 75 78 82 83 79 78 81 83 83 80 87 102 103 101 101 105 103 99
50 45 42 37 31 26 23 18 16 16 17 21 27 33 39 45 49 53 57 62 66 68 71 74 75 77 82 85 89 92 94 93 85 86 93 88 89 105 106 104 104 110 108
57 53 49 42 35 32 26 21 17 15 16 21 28 34 40 44 49 55 62 64 67 71 73 75 79 79 81 86 91 97 99 101 103 104 100 95 98 96 110 114 109 109 115
63 59 50 44 38 34 28 22 18 16 19 24 30 35 40 44 50 58 64 67 68 72 74 76 79 81 82 82 89 98 106 109 102 92 96 103 97 99 99 113 119 116 116
70 61 55 47 42 36 31 25 21 20 23 27 32 35 40 44 52 62 67 69 69 74 73 74 75 82 86 78 67 68 60 92 77 46 55 74 83 80 94 102 117 121 126
78 69 59 50 44 38 33 27 25 23 27 32 34 37 40 47 53 61 63 66 67 71 74 73 73 73 82 83 71 47 31 38 77 89 69 68 76 74 77 79 86 112 120
84 69 59 54 49 42 35 30 28 28 32 36 42 45 46 49 53 61 65 67 68 71 73 74 76 79 79 87 73 67 65 73 51 82 71 65 66 88 87 76 77 89 110
84 74 65 58 51 42 35 31 29 30 35 40 46 51 51 53 58 63 68 71 72 74 74 75 77 81 83 87 84 72 63 66 79 85 102 83 79 88 104 107 95 91 80
88 79 72 63 53 44 35 31 29 32 38 45 49 54 57 63 67 65 69 72 73 74 76 81 82 85 86 90 86 89 83 70 73 66 80 86 80 90 90 99 96 110 93
Wind_Direction_500mb
45 5 359 356 347 307 271 258 243 249 252 244 256 275 288 294 292 292 291 292 296 300 301 300 299 300 290 282 280 278 282 270 269 271 271 272 267 263 264 259 253 250 236
350 343 318 297 287 170 222 232 241 248 263 281 296 300 293 289 296 297 296 294 299 302 298 299 302 301 299 293 286 278 269 269 266 269 272 272 266 261 266 259 251 248 238
331 324 311 291 257 245 235 228 216 206 218 231 241 254 257 262 279 285 289 285 287 293 295 297 300 300 300 297 290 285 280 272 267 264 266 263 258 263 264 255 254 242 239
273 277 297 322 277 259 252 250 240 239 240 245 250 251 257 257 254 251 257 267 277 282 285 284 286 288 290 294 296 285 282 279 274 267 263 264 265 259 261 257 251 240 233
228 282 310 305 306 299 289 265 252 257 259 264 269 277 279 276 271 267 264 263 263 266 272 278 284 284 282 283 286 288 284 282 281 274 264 261 259 257 256 254 250 242 232
139 73 6 29 27 5 350 308 291 283 278 279 279 276 275 278 279 278 278 274 269 265 265 266 272 275 277 278 278 279 280 279 279 279 269 262 259 256 253 249 246 241 233
151 162 140 0 339 329 319 319 316 311 308 302 294 290 288 282 281 282 281 279 278 278 277 274 268 267 267 269 273 274 276 276 276 273 274 265 258 256 251 246 239 239 235
213 231 248 261 278 288 295 303 311 313 311 312 308 301 296 292 291 290 284 278 275 274 275 274 273 272 268 269 269 269 270 272 274 271 269 270 259 255 250 247 240 235 236
218 227 234 239 257 291 309 312 313 312 310 306 306 302 296 293 291 291 290 289 285 280 277 273 272 271 272 272 271 269 265 266 270 269 267 265 263 254 252 244 241 237 235
214 218 215 213 229 259 314 327 342 352 351 347 341 335 327 316 306 296 290 288 287 286 284 277 273 270 270 270 271 271 269 264 262 265 266 265 261 258 250 249 245 238 237
212 215 214 213 214 206 284 345 3 7 6 2 358 354 348 337 327 317 309 302 297 290 284 282 280 275 273 271 269 270 271 271 268 264 263 264 263 260 254 249 246 243 236
209 213 217 225 231 225 268 341 356 360 360 360 356 353 350 345 340 336 330 323 317 312 307 299 289 283 278 275 272 268 267 268 268 267 263 262 261 260 258 249 247 244 240
213 216 220 223 223 232 257 312 340 346 352 350 348 344 342 340 337 334 331 328 324 319 314 309 304 299 290 281 277 271 269 267 266 265 264 261 260 259 259 254 249 246 243
216 219 222 227 235 243 250 271 321 337 333 334 334 335 334 334 335 333 333 331 330 330 326 322 315 311 305 297 290 283 276 272 271 268 265 260 258 257 255 256 249 248 247
217 222 225 229 234 234 235 257 286 311 322 328 331 332 332 333 335 334 332 331 331 331 330 328 323 318 313 308 302 294 283 273 268 272 273 269 261 256 254 252 251 247 247
222 223 223 227 229 228 234 249 286 312 326 332 330 328 328 329 331 332 331 329 328 328 329 329 329 323 319 314 308 302 296 289 274 261 264 270 269 262 255 252 250 248 246
225 226 227 231 235 243 260 284 304 314 323 324 322 323 322 324 328 331 329 326 325 325 326 324 324 322 319 315 311 307 302 295 288 278 263 258 266 268 262 254 249 247 246
224 226 229 234 238 244 253 269 286 302 314 319 321 320 320 322 325 325 323 321 321 321 322 323 323 322 320 319 315 309 302 298 293 287 279 266 257 259 266 260 253 249 246
226 230 233 235 238 238 239 252 271 291 307 316 320 319 319 320 321 322 321 320 319 320 322 323 322 321 319 317 315 311 308 303 295 288 284 276 266 256 256 263 258 250 247
225 228 232 234 234 234 234 243 257 282 303 315 316 316 315 317 320 321 319 318 319 319 320 320 319 318 316 315 312 306 304 301 299 296 289 281 275 264 254 255 257 256 247
225 227 229 231 231 231 233 241 256 279 299 310 318 315 315 317 320 318 314 313 314 315 316 317 317 317 315 317 313 311 304 300 297 294 291 292 282 273 263 256 254 256 254
229 228 227 229 231 230 233 241 257 279 297 314 317 313 313 317 318 313 310 311 313 312 314 314 314 313 313 315 310 306 307 303 307 303 294 288 286 280 270 260 256 252 254
225 225 227 230 232 233 237 246 262 281 297 307 308 314 315 317 315 309 308 308 311 312 313 311 310 308 306 304 301 277 291 281 304 292 284 276 273 274 273 270 263 252 253
225 226 227 228 230 233 238 249 266 285 299 309 315 319 318 316 313 310 309 310 311 308 307 306 305 303 302 300 294 284 274 274 286 297 286 280 277 267 264 254 249 252 251
225 223 227 230 231 234 243 255 273 290 301 313 314 314 315 317 314 311 311 310 309 306 305 303 301 298 298 297 293 289 279 276 269 267 281 286 278 272 271 263 258 245 245
224 223 225 228 231 238 250 263 277 294 305 310 312 317 319 320 313 312 310 309 308 306 304 302 298 296 295 293 288 288 282 272 271 267 268 272 274 267 269 270 270 260 248
Wind_Speed_850mb
3 7 13 8 5 2 5 10 10 9 7 7 9 11 12 12 12 12 13 13 15 20 22 22 22 25 23 21 20 19 21 23 24 27 25 22 21 22 24 24 23 25 24
9 11 8 7 7 2 7 8 8 7 7 9 11 12 13 14 16 17 18 19 19 18 18 20 22 21 25 25 26 25 24 25 27 29 30 29 29 25 26 24 28 28 29
7 12 11 7 7 10 14 12 13 12 9 13 12 13 13 14 15 18 20 23 24 23 22 24 23 24 24 26 26 28 30 30 30 30 32 37 35 28 26 25 26 30 33
3 6 7 10 9 9 14 16 18 21 22 21 22 23 23 22 23 23 22 22 24 26 27 26 27 25 27 28 30 29 30 32 33 32 34 37 38 32 31 29 26 29 34
4 3 8 8 4 7 11 13 19 22 24 26 28 28 29 29 29 28 29 29 28 28 29 29 32 31 32 32 30 35 31 32 34 36 35 38 40 39 35 31 30 31 34
4 5 3 5 7 7 5 5 10 15 20 24 29 34 38 40 38 38 36 37 36 35 35 33 33 34 36 36 35 35 37 37 36 39 41 40 40 42 38 36 35 33 35
9 6 2 3 6 9 11 12 11 11 14 17 19 25 30 37 42 46 46 45 45 43 43 43 40 40 40 39 40 39 39 40 43 44 43 44 43 42 43 41 41 39 38
14 11 9 9 8 9 11 14 16 18 21 23 26 29 31 36 38 42 45 49 53 53 51 47 48 48 48 48 45 43 43 43 47 49 50 46 48 46 47 48 47 46 45
21 17 13 9 7 7 9 11 12 14 16 19 23 27 31 36 43 46 47 48 52 54 53 54 56 55 54 54 54 53 50 49 49 53 54 56 48 50 50 54 54 54 52
25 20 17 11 7 4 5 7 9 11 14 16 19 24 27 31 36 40 46 50 51 52 54 58 60 61 60 61 60 60 64 61 60 57 61 62 57 51 54 57 60 60 59
27 23 18 15 11 5 1 5 9 13 15 17 19 22 25 27 29 32 35 41 46 49 50 53 58 63 65 67 67 67 67 68 70 69 66 66 63 58 55 59 64 65 66
31 27 21 16 10 5 3 6 11 15 17 20 23 26 30 35 38 40 41 41 41 44 46 48 53 57 61 69 72 73 75 74 75 77 77 74 68 64 60 60 65 71 73
36 32 26 20 14 10 6 5 7 10 14 18 22 25 29 32 37 42 44 44 44 45 47 48 49 53 58 62 66 73 75 79 81 81 81 81 78 72 67 62 67 74 78
43 38 30 21 17 14 11 6 6 9 13 17 21 26 29 32 36 41 46 49 51 50 49 51 54 55 55 57 61 67 70 78 78 80 85 84 82 81 74 72 67 75 79
48 42 34 27 24 20 13 8 7 9 13 18 22 27 32 37 40 43 47 52 54 54 54 52 55 60 62 62 60 62 67 71 80 82 86 87 86 85 84 80 78 74 81
52 46 37 32 26 19 12 7 7 10 15 22 28 33 38 41 42 44 49 52 54 56 58 61 61 62 64 67 70 68 67 68 71 83 88 90 94 91 91 89 87 84 80
52 44 36 30 22 17 11 10 12 15 18 22 27 32 37 41 44 49 54 57 60 62 62 63 65 69 69 66 70 76 77 74 75 74 87 97 94 98 97 100 97 94 89
50 42 37 33 27 21 17 15 14 16 18 22 26 32 37 42 46 49 54 60 62 65 68 70 72 75 78 82 83 79 78 81 83 83 80 87 102 103 101 101 105 103 99
50 45 42 37 31 26 23 18 16 16 17 21 27 33 39 45 49 53 57 62 66 68 71 74 75 77 82 85 89 92 94 93 85 86 93 88 89 105 106 104 104 110 108
57 53 49 42 35 32 26 21 17 15 16 21 28 34 40 44 49 55 62 64 67 71 73 75 79 79 81 86 91 97 99 101 103 104 100 95 98 96 110 114 109 109 115
63 59 50 44 38 34 28 22 18 16 19 24 30 35 40 44 50 58 64 67 68 72 74 76 79 81 82 82 89 98 106 109 102 92 96 103 97 99 99 113 119 116 116
70 61 55 47 42 36 31 25 21 20 23 27 32 35 40 44 52 62 67 69 69 74 73 74 75 82 86 78 67 68 60 92 77 46 55 74 83 80 94 102 117 121 126
78 69 59 50 44 38 33 27 25 23 27 32 34 37 40 47 53 61 63 66 67 71 74 73 73 73 82 83 71 47 31 38 77 89 69 68 76 74 77 79 86 112 120
84 69 59 54 49 42 35 30 28 28 32 36 42 45 46 49 53 61 65 67 68 71 73 74 76 79 79 87 73 67 65 73 51 82 71 65 66 88 87 76 77 89 110
84 74 65 58 51 42 35 31 29 30 35 40 46 51 51 53 58 63 68 71 72 74 74 75 77 81 83 87 84 72 63 66 79 85 102 83 79 88 104 107 95 91 80
88 79 72 63 53 44 35 31 29 32 38 45 49 54 57 63 67 65 69 72 73 74 76 81 82 85 86 90 86 89 83 70 73 66 80 86 80 90 90 99 96 110 93
Wind_Direction_850mb
45 5 359 356 347 307 271 258 243 249 252 244 256 275 288 294 292 292 291 292 296 300 301 300 299 300 290 282 280 278 282 270 269 271 271 272 267 263 264 259 253 250 236
350 343 318 297 287 170 222 232 241 248 263 281 296 300 293 289 296 297 296 294 299 302 298 299 302 301 299 293 286 278 269 269 266 269 272 272 266 261 266 259 251 248 238
331 324 311 291 257 245 235 228 216 206 218 231 241 254 257 262 279 285 289 285 287 293 295 297 300 300 300 297 290 285 280 272 267 264 266 263 258 263 264 255 254 242 239
273 277 297 322 277 259 252 250 240 239 240 245 250 251 257 257 254 251 257 267 277 282 285 284 286 288 290 294 296 285 282 279 274 267 263 264 265 259 261 257 251 240 233
228 282 310 305 306 299 289 265 252 257 259 264 269 277 279 276 271 267 264 263 263 266 272 278 284 284 282 283 286 288 284 282 281 274 264 261 259 257 256 254 250 242 232
139 73 6 29 27 5 350 308 291 283 278 279 279 276 275 278 279 278 278 274 269 265 265 266 272 275 277 278 278 279 280 279 279 279 269 262 259 256 253 249 246 241 233
151 162 140 0 339 329 319 319 316 311 308 302 294 290 288 282 281 282 281 279 278 278 277 274 268 267 267 269 273 274 276 276 276 273 274 265 258 256 251 246 239 239 235
213 231 248 261 278 288 295 303 311 313 311 312 308 301 296 292 291 290 284 278 275 274 275 274 273 272 268 269 269 269 270 272 274 271 269 270 259 255 250 247 240 235 236
218 227 234 239 257 291 309 312 313 312 310 306 306 302 296 293 291 291 290 289 285 280 277 273 272 271 272 272 271 269 265 266 270 269 267 265 263 254 252 244 241 237 235
214 218 215 213 229 259 314 327 342 352 351 347 341 335 327 316 306 296 290 288 287 286 284 277 273 270 270 270 271 271 269 264 262 265 266 265 261 258 250 249 245 238 237
212 215 214 213 214 206 284 345 3 7 6 2 358 354 348 337 327 317 309 302 297 290 284 282 280 275 273 271 269 270 271 271 268 264 263 264 263 260 254 249 246 243 236
209 213 217 225 231 225 268 341 356 360 360 360 356 353 350 345 340 336 330 323 317 312 307 299 289 283 278 275 272 268 267 268 268 267 263 262 261 260 258 249 247 244 240
213 216 220 223 223 232 257 312 340 346 352 350 348 344 342 340 337 334 331 328 324 319 314 309 304 299 290 281 277 271 269 267 266 265 264 261 260 259 259 254 249 246 243
216 219 222 227 235 243 250 271 321 337 333 334 334 335 334 334 335 333 333 331 330 330 326 322 315 311 305 297 290 283 276 272 271 268 265 260 258 257 255 256 249 248 247
217 222 225 229 234 234 235 257 286 311 322 328 331 332 332 333 335 334 332 331 331 331 330 328 323 318 313 308 302 294 283 273 268 272 273 269 261 256 254 252 251 247 247
222 223 223 227 229 228 234 249 286 312 326 332 330 328 328 329 331 332 331 329 328 328 329 329 329 323 319 314 308 302 296 289 274 261 264 270 269 262 255 252 250 248 246
225 226 227 231 235 243 260 284 304 314 323 324 322 323 322 324 328 331 329 326 325 325 326 324 324 322 319 315 311 307 302 295 288 278 263 258 266 268 262 254 249 247 246
224 226 229 234 238 244 253 269 286 302 314 319 321 320 320 322 325 325 323 321 321 321 322 323 323 322 320 319 315 309 302 298 293 287 279 266 257 259 266 260 253 249 246
226 230 233 235 238 238 239 252 271 291 307 316 320 319 319 320 321 322 321 320 319 320 322 323 322 321 319 317 315 311 308 303 295 288 284 276 266 256 256 263 258 250 247
225 228 232 234 234 234 234 243 257 282 303 315 316 316 315 317 320 321 319 318 319 319 320 320 319 318 316 315 312 306 304 301 299 296 289 281 275 264 254 255 257 256 247
225 227 229 231 231 231 233 241 256 279 299 310 318 315 315 317 320 318 314 313 314 315 316 317 317 317 315 317 313 311 304 300 297 294 291 292 282 273 263 256 254 256 254
229 228 227 229 231 230 233 241 257 279 297 314 317 313 313 317 318 313 310 311 313 312 314 314 314 313 313 315 310 306 307 303 307 303 294 288 286 280 270 260 256 252 254
225 225 227 230 232 233 237 246 262 281 297 307 308 314 315 317 315 309 308 308 311 312 313 311 310 308 306 304 301 277 291 281 304 292 284 276 273 274 273 270 263 252 253
225 226 227 228 230 233 238 249 266 285 299 309 315 319 318 316 313 310 309 310 311 308 307 306 305 303 302 300 294 284 274 274 286 297 286 280 277 267 264 254 249 252 251
225 223 227 230 231 234 243 255 273 290 301 313 314 314 315 317 314 311 311 310 309 306 305 303 301 298 298 297 293 289 279 276 269 267 281 286 278 272 271 263 258 245 245
224 223 225 228 231 238 250 263 277 294 305 310 312 317 319 320 313 312 310 309 308 306 304 302 298 296 295 293 288 288 282 272 271 267 268 272 274 267 269 270 270 260 248